Weather History for Trenton, NJ

Change the Weather History Date:

Wednesday, June 5, 2013

  Actual Average Record
Temperature  
Mean Temperature 64 °F 68 °F  
Max Temperature 77 °F 78 °F 98 °F (1899)
Min Temperature 50 °F 57 °F 46 °F (1997)
Degree Days  
Heating Degree Days 1 2  
Month to date heating degree days 1 10  
Since 1 June heating degree days 1 10  
Since 1 July heating degree days 4950 5146  
Cooling Degree Days 0 4  
Month to date cooling degree days 36 19  
Year to date cooling degree days 126 76  
Since 1 June cooling degree days 36 19  
Growing Degree Days 13 (Base 50)    
Moisture  
Dew Point 46 °F    
Average Humidity 54    
Maximum Humidity 75    
Minimum Humidity 33    
Precipitation  
Precipitation 0.00 in 0.17 in 3.10 in (1992)
Month to date precipitation 0.61 0.81  
Year to date precipitation 13.43 18.33  
Sea Level Pressure  
Sea Level Pressure 30.12 in    
Wind  
Wind Speed 4 mph (ENE)    
Max Wind Speed 14 mph    
Max Gust Speed 17 mph    
Visibility 10 miles    
Events      
T = Trace of Precipitation, MM = Missing Value Source: NWS Daily Summary

Daily Weather History Graph

Daily Weather History Graph

Search for Another Location

Airport:

Trip Planner

Search our weather history database for the weather conditions in past years. The results will help you decide how hot, cold, wet, or windy it might be!

Date:

Astronomy

Jun. 05, 2013 Rise Set
Actual Time 5:30 AM EDT 8:25 PM EDT
Civil Twilight 4:57 AM EDT 8:58 PM EDT
Nautical Twilight 4:16 AM EDT 9:39 PM EDT
Astronomical Twilight 3:28 AM EDT 10:27 PM EDT
Moon 3:33 AM EDT (6/5) 5:49 PM EDT (6/5)
Length of Visible Light 16h 00m
Length of Day
14h 55m
Waning Crescent, 8% of the Moon is Illuminated
Jun 5
Waning Crescent
Jun 8
New
Jun 16
First Quarter
Jun 23
Full
Jun 30
Last Quarter

Hourly Weather History & Observations

Time (EDT) Temp. Dew Point Humidity Pressure Visibility Wind Dir Wind Speed Gust Speed Precip Events Conditions
12:53 AM 57.9 °F 43.0 °F 58% 30.09 in 10.0 mi North 5.8 mph - N/A   Clear
1:53 AM 57.0 °F 42.1 °F 57% 30.09 in 10.0 mi North 4.6 mph - N/A   Clear
2:53 AM 55.0 °F 41.0 °F 59% 30.10 in 10.0 mi North 5.8 mph - N/A   Clear
3:53 AM 55.0 °F 41.0 °F 59% 30.10 in 10.0 mi Calm Calm - N/A   Clear
4:53 AM 51.1 °F 42.1 °F 71% 30.12 in 10.0 mi North 3.5 mph - N/A   Clear
5:53 AM 53.1 °F 42.1 °F 66% 30.14 in 10.0 mi North 5.8 mph - N/A   Clear
6:53 AM 55.0 °F 42.1 °F 62% 30.17 in 10.0 mi North 5.8 mph - N/A   Clear
7:53 AM 60.1 °F 44.1 °F 55% 30.18 in 10.0 mi NNE 3.5 mph - N/A   Clear
8:53 AM 64.0 °F 44.1 °F 48% 30.18 in 10.0 mi East 8.1 mph - N/A   Clear
9:53 AM 66.0 °F 46.0 °F 48% 30.18 in 10.0 mi NE 3.5 mph - N/A   Clear
10:53 AM 68.0 °F 46.0 °F 45% 30.17 in 10.0 mi Calm Calm - N/A   Clear
11:53 AM 70.0 °F 46.0 °F 42% 30.16 in 10.0 mi Calm Calm - N/A   Clear
12:53 PM 73.0 °F 44.1 °F 35% 30.14 in 10.0 mi Variable 3.5 mph - N/A   Clear
1:53 PM 73.9 °F 44.1 °F 34% 30.12 in 10.0 mi Calm Calm - N/A   Clear
2:53 PM 73.9 °F 45.0 °F 35% 30.11 in 10.0 mi Calm Calm - N/A   Clear
3:53 PM 75.0 °F 48.0 °F 38% 30.10 in 10.0 mi SW 5.8 mph - N/A   Clear
4:53 PM 75.0 °F 46.9 °F 37% 30.09 in 10.0 mi Calm Calm - N/A   Clear
5:53 PM 75.0 °F 45.0 °F 34% 30.09 in 10.0 mi Calm Calm - N/A   Clear
6:53 PM 72.0 °F 52.0 °F 49% 30.08 in 10.0 mi East 9.2 mph - N/A   Clear
7:53 PM 68.0 °F 52.0 °F 56% 30.09 in 10.0 mi SE 9.2 mph - N/A   Clear
8:53 PM 64.0 °F 48.9 °F 58% 30.10 in 10.0 mi SSE 6.9 mph - N/A   Clear
9:53 PM 63.0 °F 50.0 °F 63% 30.11 in 10.0 mi SE 6.9 mph - N/A   Clear
10:53 PM 61.0 °F 51.1 °F 70% 30.12 in 10.0 mi SE 4.6 mph - N/A   Clear
11:53 PM 59.0 °F 52.0 °F 78% 30.11 in 10.0 mi SSE 4.6 mph - N/A   Clear